SHT22T EGLL-EGJB

Flight info

Callsign SHT22T
Flight time 0h 32m
Altitude 23000
Route GOGSI2G GOGSI N621 SAM/N0375F180 N63 LELNA LELNA1V
Aircraft A319/M-SDE3FGHIRWY/LB1

Departure

Time 2026-05-04 10:44
Airport London Heathrow Airport (EGLL)

Arrival

Time 2026-05-04 11:17
Airport Guernsey Airport (EGJB)
Time Latitude Longitude Altitude Speed Heading
2026-05-04 10:22 51.47379 -0.48002 86 ft 0 kts 269°
2026-05-04 10:30 51.47379 -0.47997 86 ft 2 kts 269°
2026-05-04 10:30 51.47380 -0.47968 88 ft 3 kts 269°
2026-05-04 10:30 51.47380 -0.47938 86 ft 2 kts 269°
2026-05-04 10:31 51.47381 -0.47909 88 ft 3 kts 249°
2026-05-04 10:31 51.47391 -0.47885 89 ft 3 kts 210°
2026-05-04 10:32 51.47423 -0.47874 87 ft 0 kts 179°
2026-05-04 10:34 51.47416 -0.47874 88 ft 3 kts 179°
2026-05-04 10:34 51.47367 -0.47872 90 ft 11 kts 179°
2026-05-04 10:34 51.47277 -0.47871 86 ft 15 kts 179°
2026-05-04 10:35 51.47166 -0.47869 86 ft 18 kts 179°
2026-05-04 10:35 51.47034 -0.47868 86 ft 20 kts 180°
2026-05-04 10:35 51.46888 -0.47867 86 ft 20 kts 179°
2026-05-04 10:35 51.46773 -0.47864 89 ft 15 kts 180°
2026-05-04 10:36 51.46672 -0.47860 90 ft 11 kts 166°
2026-05-04 10:36 51.46654 -0.47738 86 ft 13 kts 89°
2026-05-04 10:36 51.46654 -0.47556 86 ft 22 kts 90°
2026-05-04 10:36 51.46656 -0.47270 86 ft 28 kts 89°
2026-05-04 10:37 51.46658 -0.46973 88 ft 22 kts 89°
2026-05-04 10:37 51.46658 -0.46701 87 ft 26 kts 90°
2026-05-04 10:37 51.46659 -0.46383 89 ft 31 kts 90°
2026-05-04 10:37 51.46660 -0.46120 88 ft 23 kts 89°
2026-05-04 10:39 51.46666 -0.44379 86 ft 28 kts 90°
2026-05-04 10:39 51.46667 -0.44045 86 ft 32 kts 90°
2026-05-04 10:39 51.46668 -0.43784 86 ft 20 kts 89°
2026-05-04 10:40 51.46661 -0.43624 86 ft 11 kts 124°
2026-05-04 10:40 51.46613 -0.43604 86 ft 1 kts 179°
2026-05-04 10:40 51.46612 -0.43604 86 ft 0 kts 179°
2026-05-04 10:40 51.46610 -0.43604 86 ft 2 kts 179°
2026-05-04 10:41 51.46589 -0.43604 87 ft 4 kts 179°
2026-05-04 10:41 51.46554 -0.43599 87 ft 6 kts 170°
2026-05-04 10:41 51.46511 -0.43582 88 ft 5 kts 167°
2026-05-04 10:41 51.46494 -0.43619 86 ft 1 kts 269°
2026-05-04 10:42 51.46494 -0.43620 86 ft 0 kts 269°
2026-05-04 10:44 51.46382 -0.55144 2839 ft 226 kts 269°
2026-05-04 10:45 51.46355 -0.57799 3375 ft 251 kts 269°
2026-05-04 10:45 51.46319 -0.60689 4238 ft 263 kts 268°
2026-05-04 10:45 51.46070 -0.63600 5295 ft 268 kts 256°
2026-05-04 10:45 51.45626 -0.66518 5803 ft 269 kts 256°
2026-05-04 10:46 51.45459 -0.69504 6055 ft 269 kts 268°
2026-05-04 10:46 51.45430 -0.72518 6609 ft 272 kts 268°
2026-05-04 10:46 51.45400 -0.75563 7653 ft 273 kts 268°
2026-05-04 10:46 51.45278 -0.78610 8663 ft 275 kts 258°
2026-05-04 10:47 51.44613 -0.81453 9627 ft 278 kts 238°
2026-05-04 10:47 51.43355 -0.83845 10347 ft 291 kts 221°
2026-05-04 10:47 51.41763 -0.86061 10690 ft 314 kts 221°
2026-05-04 10:47 51.39963 -0.88198 11235 ft 328 kts 213°
2026-05-04 10:49 51.25815 -1.03536 15678 ft 368 kts 213°
2026-05-04 10:49 51.23666 -1.05754 16521 ft 368 kts 212°
2026-05-04 10:50 51.21505 -1.07955 17250 ft 370 kts 212°
2026-05-04 10:51 51.05877 -1.23938 21729 ft 393 kts 212°
2026-05-04 10:52 51.03575 -1.26299 22295 ft 396 kts 212°
2026-05-04 10:52 51.01246 -1.28683 22839 ft 399 kts 212°
2026-05-04 10:52 50.98902 -1.31073 23005 ft 400 kts 212°
2026-05-04 10:54 50.81760 -1.45489 23027 ft 398 kts 206°
2026-05-04 10:54 50.79317 -1.47439 23024 ft 398 kts 206°
2026-05-04 10:56 50.61970 -1.61168 23004 ft 399 kts 206°
2026-05-04 10:56 50.59484 -1.63120 22989 ft 399 kts 206°
2026-05-04 10:56 50.56996 -1.65072 22992 ft 398 kts 206°
2026-05-04 10:57 50.54550 -1.66993 23016 ft 391 kts 206°
2026-05-04 10:57 50.52123 -1.68904 23015 ft 389 kts 206°
2026-05-04 10:57 50.49704 -1.70807 23018 ft 389 kts 206°
2026-05-04 10:57 50.47285 -1.72705 23018 ft 389 kts 206°
2026-05-04 10:58 50.44869 -1.74598 23024 ft 389 kts 206°
2026-05-04 10:58 50.42448 -1.76489 23021 ft 389 kts 206°
2026-05-04 10:58 50.40030 -1.78378 23027 ft 388 kts 205°
2026-05-04 10:58 50.37610 -1.80265 23021 ft 388 kts 205°
2026-05-04 10:59 50.35195 -1.82142 23021 ft 388 kts 205°
2026-05-04 10:59 50.32778 -1.84018 23022 ft 388 kts 205°
2026-05-04 10:59 50.30361 -1.85893 23038 ft 387 kts 205°
2026-05-04 10:59 50.27938 -1.87771 23038 ft 387 kts 205°
2026-05-04 11:00 50.25558 -1.89618 23029 ft 386 kts 205°
2026-05-04 11:01 50.09057 -2.02353 20895 ft 372 kts 205°
2026-05-04 11:02 50.06746 -2.04130 20641 ft 371 kts 205°
2026-05-04 11:02 50.04430 -2.05908 20383 ft 370 kts 205°
2026-05-04 11:05 49.79419 -2.43472 14040 ft 340 kts 226°
2026-05-04 11:06 49.77848 -2.46186 13473 ft 336 kts 226°
2026-05-04 11:06 49.76317 -2.48835 12894 ft 333 kts 226°
2026-05-04 11:06 49.74780 -2.51495 12316 ft 330 kts 226°
2026-05-04 11:06 49.73267 -2.54108 11749 ft 322 kts 226°
2026-05-04 11:08 49.62989 -2.69755 7883 ft 275 kts 220°
2026-05-04 11:10 49.54145 -2.81795 5121 ft 234 kts 220°
2026-05-04 11:12 49.46268 -2.88970 3210 ft 171 kts 179°
2026-05-04 11:12 49.45083 -2.88879 2974 ft 170 kts 166°
2026-05-04 11:12 49.44036 -2.88086 2774 ft 168 kts 142°
2026-05-04 11:12 49.43258 -2.86764 2570 ft 167 kts 121°
2026-05-04 11:13 49.42850 -2.85099 2432 ft 167 kts 99°
2026-05-04 11:13 49.42829 -2.83320 2302 ft 167 kts 88°
2026-05-04 11:13 49.42881 -2.81554 2167 ft 163 kts 88°
2026-05-04 11:13 49.42932 -2.79830 2080 ft 161 kts 88°
2026-05-04 11:14 49.42983 -2.78106 2007 ft 161 kts 87°
2026-05-04 11:14 49.43033 -2.76390 2007 ft 161 kts 87°
2026-05-04 11:14 49.43083 -2.74669 1964 ft 162 kts 87°
2026-05-04 11:16 49.43393 -2.64020 682 ft 124 kts 86°
2026-05-04 11:16 49.43430 -2.62692 516 ft 124 kts 86°
2026-05-04 11:16 49.43465 -2.61374 348 ft 124 kts 86°
2026-05-04 11:17 49.43496 -2.60222 313 ft 77 kts 88°
2026-05-04 11:17 49.43511 -2.59702 328 ft 35 kts 87°
2026-05-04 11:19 49.43366 -2.59441 333 ft 15 kts 268°
2026-05-04 11:19 49.43363 -2.59582 329 ft 7 kts 268°
2026-05-04 11:19 49.43353 -2.59621 326 ft 5 kts 206°
2026-05-04 11:19 49.43304 -2.59623 329 ft 6 kts 177°
2026-05-04 11:20 49.43274 -2.59621 329 ft 3 kts 178°
2026-05-04 11:20 49.43261 -2.59621 328 ft 1 kts 178°
2026-05-04 11:20 49.43255 -2.59620 328 ft 1 kts 178°
2026-05-04 11:20 49.43253 -2.59620 328 ft 0 kts 177°